Simultaneous Nadir Overpasses (SNOs) Predictions

Prediction of SNOs between AQUA and METOP-B Satellite Orbit:

Table of predicted SNOs for the next 14.0 days since TLE Epoch: 6/24/2023
Index Date (AQUA) Time (AQUA) Lat,Lon (AQUA) SZA (AQUA ) Date (METOP-B) Time (METOP-B) Lat,Lon (METOP-B) SZA (METOP-B ) Distance(km) Time Diff (sec)
1 06/24/2023 03:26:30 74.65, 124.02 51.21 06/24/2023 03:27:25 74.62, 124.01 51.18 3.24 55
2 06/26/2023 19:40:15 74.55,-119.15 51.18 06/26/2023 19:39:03 74.55,-119.09 51.19 1.79 72
3 06/26/2023 20:29:39 -74.58, 48.42 128.79 06/26/2023 20:29:44 -74.59, 48.35 128.77 2.48 5
4 06/26/2023 21:19:08 74.76,-144.37 51.40 06/26/2023 21:20:20 74.77,-143.84 51.40 15.80 72
5 06/29/2023 13:32:51 74.56, -27.29 51.32 06/29/2023 13:32:02 74.54, -27.36 51.31 2.46 49
6 06/29/2023 14:22:16 -74.64, 140.16 128.60 06/29/2023 14:22:42 -74.64, 140.22 128.60 1.67 26
7 07/02/2023 07:25:26 74.57, 64.56 51.51 07/02/2023 07:25:00 74.58, 64.48 51.52 2.31 26
8 07/02/2023 08:14:51 -74.65,-127.97 128.41 07/02/2023 08:15:40 -74.67,-127.94 128.39 3.21 49
9 07/05/2023 00:28:34 -74.55, -11.15 128.29 07/05/2023 00:27:21 -74.48, -11.36 128.35 10.40 73
10 07/05/2023 01:18:00 74.59, 156.40 51.76 07/05/2023 01:17:58 74.60, 156.29 51.77 3.32 2
11 07/05/2023 02:07:25 -74.66, -36.12 128.17 07/05/2023 02:08:39 -74.65, -36.25 128.18 3.99 74
12 07/07/2023 18:21:06 -74.57, 80.70 128.00 07/07/2023 18:20:16 -74.59, 80.68 127.97 2.31 50
13 07/07/2023 19:10:33 74.67,-111.89 52.12 07/07/2023 19:10:54 74.66,-111.79 52.11 2.99 21



Historial Predications of SNOs between AQUA and METOP-B
